Probability
0 0 0 0 0 0 0 0 0 0 0 0 0 0 0 0 0 0 0 0 0 0 0 0 0 0 0 0 0 0 0 0 0 0 0 0 0 0
0 0 0 0 0 0 0 0 0 0 0 0 0 0 0 0 0 0 0 0 0 0 0 0 0 0 0 0 0 0 0 0 0 0 0 0 0 0
0 0 0 0 0 0 0 0 0 0 0 0 0 0 0 0 0 0 0 0 0 0 0 0 0 0 0 0 0 0 0 0 0 0 0 0 0 0
0 0 0 0 0 0 0 0 0 0 0 0 0 0 0 0 0 0 0 0 0 0 0 0 0 0 0 0 0 0 0 0 0 0 0 0 0 0
0 0 0 0 0 0 0 0 0 0 0 0 0 0 0 0 0 0 0 0 0 0 0 0 0 0 0 0 0 0 0 0 0 0 0 0 0 0
0 0 0 0 0 0 0 0 0 0 0 0 0 0 0 0 0 0 0 0 0 0 0 0 0 0 0 0 0 0 0 0 0 0 0 0 0 0
0 0 0 0 0 0 0 0 0 0 0 0 0 0 0 0 0 0 0 0 0 0 0 0 0 0 0 0 0 0 0 0 0 0 0 0 0 0
0 0 0 0 0 0 0 0 0 0 0 0 0 0 0 0 0 0 0 0 0 0 0 0 0 0 0 0 0 0 0 0 0 0 0 0 0 0
0 0 0 0 0 0 0 0 0 0 0 0 0 0 0 0 0 0 0 0 0 0 0 0 0 0 0 0 0 0 0 0 0 0 0 0 0 0
0 0 0 0 0 0 0 0 0 0 0 0 0 0 0 0 0 0 0 0 0 0 0 0 0 0 0 0 0 0 0 0 0 0 0 0 0 0
0 0 0 0 0 0 0 0 0 0 0 0 0 0 0 0 0 0 0 0 0 0 0 0 0 0 0 0 0 0 0 0 0 0 0 0 0 0
0 0 0 0 0 0 0 0 0 0 0 0 0 0 0 0 0 0 0 0 0 0 0 0 0 0 0 0 0 0 0 0 0 0 0 0 0 0
0 0 0 0 0 0 0 0 0 0 0 0 0 0 0 0 0 0 0 0 0 0 0 0 0 0 0 0 0 0 0 0 0 0 0 0 0 0
0 0 0 0 0 0 0 0 0 0 0 0 0 0 0 0 0 0 0 0 0 0 0 0 0 0 0 0 0 0 0 0 0 0 0 0 0 0
0 0 0 0 0 0 0 0 0 0 0 0 0 0 0 0 0 0 0 0 0 0 0 0 0 0 0 0 0 0 0 0 0 0 0 0 0 0
0 0 0 0 0 0 0 0 0 0 0 0 0 0 0 0 0 0 0 0 0 0 0 0 0 0 0 0 0 0 0 0 0 0 0 0 0 0
0 0 0 0 0 0 0 0 0 0 0 0 0 0 0 0 0 0 0 0 0 0 0 0 0 0 0 0 0 0 0 0 0 0 0 0 0 0
0 0 0 0 0 0 0 0 0 0 0 0 0 0 0 0 0 0 0 0 0 0 0 0 0 0 0 0 0 0 0 0 0 0 0 0 0 0
0 0 0 0 0 0 0 0 0 0 0 0 0 0 0 0 0 0 0 0 0 0 0 0 0 0 0 0 0 0 0 0 0 0 0 0 0 0
0 0 0 0 0 0 0 0 0 0 0 0 0 0 0 0 0 0 0 0 0 0 0 0 0 0 0 0 0 0 0 0 0 0 0 0 0 0
0 0 0 0 0 0 0 0 0 0 0 0 0 0 0 0 0 0 0 0 0 0 0 0 0 0 0 0 0 0 0 0 0 0 0 0 0 0
0 0 0 0 0 0 0 0 0 0 0 0 0 0 0 0 0 0 0 0 0 0 0 0 0 0 0 0 0 0 0 0 0 0 0 0 0 0
0 0 0 0 0 0 0 0 0 0 0 0 0 0 0 0 0 0 0 0 0 0 0 0 0 0 0 0 0 0 0 0 0 0 0 0 0 0
Wind_Speed
2 2 1 2 2 1 0 1 2 2 2 0 1 3 3 2 3 2 2 3 3 3 3 2 2 1 2 2 3 4 5 7 9 10 11 12 12 12
3 4 4 3 3 3 2 1 0 1 1 1 2 3 3 3 4 4 3 4 5 4 3 2 2 2 2 3 5 6 8 9 10 11 12 12 12 12
5 5 6 5 4 4 3 3 3 1 1 2 2 3 3 4 4 3 3 3 3 6 5 4 3 3 4 5 7 8 8 9 10 12 12 12 12 13
6 6 6 5 6 5 4 4 3 3 2 2 2 2 3 3 3 3 3 3 3 5 5 5 4 4 5 6 7 7 8 9 10 11 12 12 13 13
7 7 6 6 6 5 5 4 3 3 3 3 2 2 2 2 3 3 3 3 3 4 5 6 6 6 6 7 8 8 8 9 10 11 12 13 13 14
7 7 6 6 5 5 4 4 4 4 4 3 3 2 2 2 2 2 2 3 3 3 4 5 6 8 8 9 9 9 9 10 11 12 13 13 13 14
7 6 6 7 8 6 4 3 4 3 3 3 2 2 2 2 2 2 2 2 2 2 2 2 3 3 4 6 8 9 10 11 12 13 13 13 13 13
6 6 6 7 9 10 10 8 6 4 2 2 2 2 1 1 1 1 1 2 3 2 2 3 2 3 3 3 7 10 11 11 11 12 12 12 12 13
5 4 4 5 7 5 8 10 9 9 6 3 2 1 0 1 0 1 1 1 2 3 2 3 2 3 3 4 11 11 10 9 9 10 10 11 12 13
4 4 3 3 3 4 4 4 4 4 4 2 2 1 2 2 2 2 2 2 3 2 1 3 3 3 3 4 9 7 5 6 7 9 10 11 12 13
3 3 2 2 3 5 4 3 3 3 4 5 3 2 3 2 0 1 0 1 2 2 0 1 3 3 3 3 4 7 7 9 10 11 11 12 13 13
2 2 3 2 3 4 3 2 1 1 1 2 3 4 4 4 5 1 1 1 1 3 1 1 2 3 5 3 2 3 5 9 11 12 13 14 15 8
1 1 2 3 2 2 2 2 2 1 1 1 1 1 2 2 2 2 0 2 2 3 2 0 1 1 2 5 4 3 3 3 4 7 12 14 14 10
1 1 2 3 2 2 1 2 2 2 1 1 1 1 1 1 2 2 2 3 4 5 5 3 3 3 3 4 5 4 3 4 5 6 5 9 10 12
1 2 2 2 2 2 2 2 2 1 1 0 1 1 1 2 2 2 3 3 4 5 5 5 5 4 4 5 6 5 5 4 4 4 4 4 5 5
0 1 2 2 1 1 1 2 1 0 1 1 1 2 2 2 2 2 2 3 3 4 4 4 5 5 5 7 8 9 6 5 4 4 5 6 6 6
2 1 0 0 1 1 1 1 1 1 1 1 1 2 2 2 3 2 2 2 3 4 4 3 4 5 8 8 8 9 8 7 8 7 6 8 7 7
3 2 2 2 2 2 2 2 2 2 2 2 2 2 3 3 4 3 3 3 5 5 5 4 3 4 4 6 11 10 8 7 6 6 6 8 10 7
3 3 3 3 3 3 3 3 3 2 2 2 3 3 3 4 4 4 4 4 5 6 6 4 3 3 5 7 6 9 7 6 6 7 7 8 10 9
3 4 4 4 4 4 4 3 3 3 3 3 4 4 4 4 4 5 4 5 6 6 6 5 4 5 6 7 7 7 10 10 8 9 9 8 9 13
4 4 4 4 4 4 4 4 4 4 4 4 4 4 4 4 5 5 5 10 9 7 8 7 6 9 6 5 8 8 7 11 13 10 9 9 11 10
5 5 5 5 5 5 4 4 4 4 5 5 5 5 5 5 6 7 7 7 7 7 9 8 7 5 5 8 11 12 12 9 11 19 20 18 10 7
6 5 5 5 5 4 4 5 6 5 5 5 5 5 5 5 6 7 7 8 8 9 9 9 7 6 7 9 11 11 14 13 10 9 10 15 22 25
Wind_Direction
52 62 70 46 47 35 221 204 218 242 247 345 26 14 3 6 7 18 13 332 303 289 294 307 333 1 342 309 297 292 290 288 285 282 281 280 279 278
56 69 65 52 51 44 41 35 74 202 206 81 48 18 6 13 28 34 28 29 17 7 348 320 308 306 298 286 279 280 280 280 280 280 280 281 282 282
60 68 63 56 58 44 42 44 40 51 149 85 57 29 27 27 24 31 36 34 16 6 356 350 335 313 298 289 284 283 284 285 284 284 284 284 284 284
67 70 65 65 63 52 53 53 46 39 93 110 65 35 34 29 30 32 30 32 20 8 3 357 342 325 308 297 291 290 288 287 285 284 283 282 283 283
73 75 72 77 71 61 58 55 45 45 59 100 83 45 36 28 32 28 28 16 6 4 1 359 351 340 330 318 308 302 295 290 284 280 279 280 280 280
71 72 72 78 83 76 65 58 60 60 61 78 77 54 40 23 37 22 11 4 356 1 359 354 346 340 328 317 308 300 292 285 281 278 276 276 276 275
69 62 67 81 94 91 86 76 72 68 65 67 63 49 31 26 23 4 8 342 341 358 338 324 322 314 314 312 306 294 284 278 275 274 274 274 275 275
76 62 59 58 67 71 76 77 82 86 85 83 73 73 29 7 4 12 9 11 335 334 337 300 292 288 286 275 291 291 284 280 279 278 278 278 279 279
79 72 64 64 65 60 62 56 52 61 81 123 118 130 213 236 81 355 339 271 264 287 331 296 310 292 286 293 304 297 289 286 285 285 284 284 283 282
76 80 80 61 87 91 78 61 45 37 57 88 140 198 226 226 200 196 223 267 276 276 213 282 311 293 296 301 309 305 305 308 309 304 296 291 287 284
66 70 80 47 71 90 88 71 47 15 27 50 57 45 13 358 122 123 18 352 314 303 329 279 306 307 300 301 313 327 330 323 316 308 300 295 291 289
65 40 33 41 49 87 116 108 64 326 358 16 25 24 23 15 31 85 162 170 263 293 302 297 305 334 318 296 286 293 302 302 303 304 302 299 294 289
108 28 334 352 13 41 116 173 237 199 137 68 12 2 9 15 17 16 149 177 202 250 271 294 275 270 264 295 292 262 259 272 285 288 296 295 291 283
162 244 281 314 343 6 26 296 351 75 97 66 3 335 330 325 319 313 292 254 231 241 252 235 245 233 264 280 281 285 269 259 266 276 273 289 291 289
205 254 285 320 24 16 348 7 53 76 87 3 298 283 268 272 284 296 296 285 274 263 254 232 232 248 249 263 275 283 299 284 261 262 269 266 267 271
218 300 333 354 47 12 10 24 39 237 210 235 270 279 286 283 282 283 289 300 300 293 271 246 236 235 253 256 265 275 269 272 284 269 271 274 267 255
193 166 171 270 297 292 281 276 279 307 317 275 277 289 289 289 286 283 272 278 275 285 293 278 252 240 240 249 262 263 266 265 266 274 277 281 275 260
204 188 219 228 238 246 256 267 261 254 254 257 265 270 275 278 280 275 267 268 275 278 281 285 294 302 286 261 237 253 260 263 266 264 258 275 282 269
216 210 223 229 234 237 238 236 242 244 239 247 254 257 260 267 272 276 273 273 275 277 275 270 262 264 284 289 272 233 240 264 273 274 266 264 274 278
208 218 226 229 228 230 232 234 240 246 242 244 248 252 253 260 266 268 268 268 276 279 279 263 242 235 249 270 276 269 254 259 267 273 276 274 271 275
222 225 226 226 226 227 229 229 231 237 241 243 246 248 249 253 260 263 266 275 278 277 278 275 256 267 266 264 269 272 261 254 257 261 270 278 282 280
225 227 227 225 225 225 225 226 231 237 240 241 243 245 244 246 255 261 264 268 268 267 271 275 271 266 252 260 270 279 285 281 270 271 267 262 265 270
225 225 226 225 223 221 221 224 229 237 235 237 241 242 242 248 252 257 261 263 267 271 274 280 278 264 261 263 271 277 282 286 288 283 272 263 262 263